Plattsburgh, NY
on Thursday, December 7, 2017

Thursday
       
Previous Day Next Day
Daily Summary
 ActualAverageRecord
Temperature
Mean Temperature °F °C 28°F -2°C  
Max Temperature 40°F 4°C 36°F 2°C 55°F 12°C (1951)
Min Temperature 28°F -2°C 20°F -7°C -1°F -18°C (1964)
Degree Days
Heating Degree Days 31 37  
Month to date heating degree days 198 251  
Since 1 July heating degree days 1578 1885  
Cooling Degree Days 0 0  
Month to date cooling degree days 0 0  
Year to date cooling degree days 384 346  
Moisture
Dew Point 23°F -5°C   
Average Humidity 68    
Maximum Humidity 92    
Minimum Humidity 44    
Precipitation
Precipitation T in / T cm in / cm 0.80 in / 2.03 cm (1959)
Month to date precipitation 0.23  
Year to date precipitation 29.87  
Wind
Wind Speed 6 mph / 9 km/h   
Max Wind Speed 13 mph / 21 km/h   
Max Gust Speed 21 mph / 34 km/h   
Visibility 8 miles / 14 kilometers   
Events Snow   

Key: T is trace of precipitation, MM is missing value
Source: NWS Daily Summary
Time(EST)TemperatureDew PointHumidity Pressure Visibility Wind DirectionWind SpeedGust SpeedPrecipitationEvents Conditions
12:53 AM 36.0°F 2.2°C 25.0°F -3.9°C 64% 29.80 in / 1009.1 hPa 10.0 miles / 16.1 kilometers SSW 8.1 mph / 13.0 km/h - 0.00 in / 0.0 cm   Overcast
1:53 AM 36.0°F 2.2°C 24.1°F -4.4°C 62% 29.81 in / 1009.5 hPa 10.0 miles / 16.1 kilometers Variable 4.6 mph / 7.4 km/h - N/A   Overcast
2:53 AM 37.0°F 2.8°C 25.0°F -3.9°C 62% 29.82 in / 1009.6 hPa 10.0 miles / 16.1 kilometers SSW 5.8 mph / 9.3 km/h - N/A   Overcast
3:53 AM 36.0°F 2.2°C 26.1°F -3.3°C 67% 29.83 in / 1009.9 hPa 9.0 miles / 14.5 kilometers Calm Calm - 0.00 in / 0.0 cm Snow Light Snow
4:53 AM 36.0°F 2.2°C 21.0°F -6.1°C 55% 29.83 in / 1010.1 hPa 10.0 miles / 16.1 kilometers Variable 5.8 mph / 9.3 km/h - 0.00 in / 0.0 cm   Overcast
5:53 AM 35.1°F 1.7°C 21.0°F -6.1°C 57% 29.84 in / 1010.5 hPa 10.0 miles / 16.1 kilometers Variable 4.6 mph / 7.4 km/h - N/A   Overcast
6:53 AM 34.0°F 1.1°C 21.9°F -5.6°C 61% 29.86 in / 1011.0 hPa 10.0 miles / 16.1 kilometers Variable 5.8 mph / 9.3 km/h - N/A   Overcast
7:53 AM 34.0°F 1.1°C 18.0°F -7.8°C 52% 29.87 in / 1011.3 hPa 10.0 miles / 16.1 kilometers Variable 5.8 mph / 9.3 km/h - N/A   Overcast
8:53 AM 34.0°F 1.1°C 18.0°F -7.8°C 52% 29.88 in / 1011.7 hPa 10.0 miles / 16.1 kilometers West 8.1 mph / 13.0 km/h - N/A   Overcast
9:53 AM 36.0°F 2.2°C 18.0°F -7.8°C 48% 29.88 in / 1011.9 hPa 10.0 miles / 16.1 kilometers West 9.2 mph / 14.8 km/h - N/A   Overcast
10:53 AM 36.0°F 2.2°C 17.1°F -8.3°C 46% 29.88 in / 1011.7 hPa 10.0 miles / 16.1 kilometers Variable 4.6 mph / 7.4 km/h - N/A   Overcast
11:53 AM 36.0°F 2.2°C 18.0°F -7.8°C 48% 29.86 in / 1011.0 hPa 10.0 miles / 16.1 kilometers SW 5.8 mph / 9.3 km/h - N/A   Mostly Cloudy
12:53 PM 37.9°F 3.3°C 17.1°F -8.3°C 43% 29.84 in / 1010.3 hPa 10.0 miles / 16.1 kilometers WSW 8.1 mph / 13.0 km/h - N/A   Overcast
1:53 PM 37.9°F 3.3°C 17.1°F -8.3°C 43% 29.82 in / 1009.8 hPa 10.0 miles / 16.1 kilometers Variable 5.8 mph / 9.3 km/h - N/A   Overcast
2:53 PM 37.0°F 2.8°C 17.1°F -8.3°C 44% 29.82 in / 1009.8 hPa 10.0 miles / 16.1 kilometers SW 9.2 mph / 14.8 km/h 17.3 mph / 27.8 km/h N/A   Overcast
3:53 PM 35.1°F 1.7°C 19.0°F -7.2°C 52% 29.83 in / 1010.0 hPa 10.0 miles / 16.1 kilometers SSW 10.4 mph / 16.7 km/h - N/A   Overcast
4:53 PM 35.1°F 1.7°C 21.9°F -5.6°C 59% 29.83 in / 1010.1 hPa 10.0 miles / 16.1 kilometers SSW 5.8 mph / 9.3 km/h - N/A   Overcast
5:53 PM 32.0°F 0.0°C 26.1°F -3.3°C 79% 29.85 in / 1010.7 hPa 9.0 miles / 14.5 kilometers SW 6.9 mph / 11.1 km/h - 0.00 in / 0.0 cm Snow Light Snow
6:53 PM 32.0°F 0.0°C 26.1°F -3.3°C 79% 29.85 in / 1010.7 hPa 7.0 miles / 11.3 kilometers SW 6.9 mph / 11.1 km/h - 0.00 in / 0.0 cm Snow Light Snow
7:53 PM 30.9°F -0.6°C 28.0°F -2.2°C 89% 29.85 in / 1010.6 hPa 5.0 miles / 8.0 kilometers SW 6.9 mph / 11.1 km/h - 0.00 in / 0.0 cm Snow Light Snow
8:53 PM 30.0°F -1.1°C 26.1°F -3.3°C 85% 29.85 in / 1010.8 hPa 10.0 miles / 16.1 kilometers South 3.5 mph / 5.6 km/h - 0.00 in / 0.0 cm   Mostly Cloudy
9:53 PM 30.9°F -0.6°C 26.1°F -3.3°C 82% 29.86 in / 1010.9 hPa 10.0 miles / 16.1 kilometers Calm Calm - N/A   Overcast
10:08 PM 30.9°F -0.6°C 26.1°F -3.3°C 82% 29.85 in / 1010.7 hPa 2.5 miles / 4.0 kilometers Calm Calm - 0.00 in / 0.0 cm Snow Light Snow
10:19 PM 30.0°F -1.1°C 26.1°F -3.3°C 85% 29.85 in / 1010.7 hPa 8.0 miles / 12.9 kilometers Calm Calm - 0.00 in / 0.0 cm Snow Light Snow
10:42 PM 30.0°F -1.1°C 27.0°F -2.8°C 88% 29.86 in / 1011.1 hPa 2.5 miles / 4.0 kilometers NNW 4.6 mph / 7.4 km/h - 0.00 in / 0.0 cm Snow Light Snow
10:53 PM 30.0°F -1.1°C 27.0°F -2.8°C 88% 29.88 in / 1011.6 hPa 1.8 miles / 2.8 kilometers Calm Calm - 0.00 in / 0.0 cm Snow Light Snow
11:02 PM 30.0°F -1.1°C 27.0°F -2.8°C 88% 29.87 in / 1011.4 hPa 3.0 miles / 4.8 kilometers South 3.5 mph / 5.6 km/h - 0.00 in / 0.0 cm Snow Light Snow
11:19 PM 28.9°F -1.7°C 26.1°F -3.3°C 89% 29.87 in / 1011.4 hPa 9.0 miles / 14.5 kilometers South 3.5 mph / 5.6 km/h - 0.00 in / 0.0 cm   Scattered Clouds
11:53 PM 28.0°F -2.2°C 25.0°F -3.9°C 88% 29.88 in / 1011.9 hPa 10.0 miles / 16.1 kilometers Calm Calm - 0.00 in / 0.0 cm   Partly Cloudy